Clear Lake, IA

4:19 AM CST on February 13, 2016 (GMT -0600)
Mason City Municipal

Weather History for KMCW - December, 2013

Change the Weather History Date:

Wednesday, December 4, 2013

  Actual Average Record
Temperature  
Mean Temperature 27 °F 23 °F  
Max Temperature 37 °F 32 °F 58 °F (2001)
Min Temperature 16 °F 15 °F -9 °F (1991)
Degree Days  
Heating Degree Days 38 42  
Month to date heating degree days 139 164  
Since 1 July heating degree days 1803 1844  
Cooling Degree Days 0 0  
Month to date cooling degree days 0 0  
Year to date cooling degree days 718 616  
Moisture  
Dew Point 30 °F    
Average Humidity 92    
Maximum Humidity 100    
Minimum Humidity 84    
Precipitation  
Precipitation 0.03 in 0.04 in 0.77 in (1947)
Month to date precipitation 0.10 0.19  
Year to date precipitation 37.94 34.15  
Snow  
Snow 0.00 in 0.30 in 15.00 in (1927)
Month to date snowfall 0.0 1.1  
Since 1 July snowfall 1.5 5.8  
Snow Depth 0.00 in    
Sea Level Pressure  
Sea Level Pressure 29.62 in    
Wind  
Wind Speed 14 mph (NW)    
Max Wind Speed 29 mph    
Max Gust Speed 34 mph    
Visibility 5 miles    
Events Fog , Rain , Snow    
T = Trace of Precipitation, MM = Missing Value Source: NWS Daily Summary

Daily Weather History Graph

Daily Weather History Graph

Search for Another Location

Airport or City:

Trip Planner

Search our weather history database for the weather conditions in past years. The results will help you decide how hot, cold, wet, or windy it might be!

Date:

Astronomy

Dec. 04, 2013 Rise Set
Actual Time 7:28 AM CST 4:38 PM CST
Civil Twilight 6:56 AM CST 5:10 PM CST
Nautical Twilight 6:21 AM CST 5:46 PM CST
Astronomical Twilight 5:46 AM CST 6:20 PM CST
Moon 8:56 AM CST (12/4) 6:50 PM CST (12/4)
Length of Visible Light 10h 13m
Length of Day
9h 09m
Waxing Crescent, 4% of the Moon is Illuminated
Dec 4
Waxing Crescent
Dec 9
First Quarter
Dec 17
Full
Dec 25
Last Quarter
Jan 1
New

Hourly Weather History & Observations

Time (CST) Temp. Windchill Dew Point Humidity Pressure Visibility Wind Dir Wind Speed Gust Speed Precip Events Conditions
12:53 AM 34.0 °F 25.0 °F 34.0 °F 100% 29.66 in 0.8 mi ENE 12.7 mph - N/A   Mist
1:53 AM 34.0 °F 25.5 °F 34.0 °F 100% 29.67 in 0.8 mi ENE 11.5 mph - N/A   Mist
2:14 AM 34.0 °F 26.0 °F 34.0 °F 100% 29.66 in 1.2 mi ENE 10.4 mph - N/A   Overcast
2:53 AM 34.0 °F 26.6 °F 34.0 °F 100% 29.68 in 1.0 mi NE 9.2 mph - N/A   Overcast
3:53 AM 34.0 °F 26.6 °F 34.0 °F 100% 29.66 in 1.5 mi ENE 9.2 mph - N/A   Overcast
4:31 AM 34.0 °F 27.2 °F 34.0 °F 100% 29.64 in 0.8 mi NE 8.1 mph - N/A   Mist
4:53 AM 33.1 °F 26.9 °F 33.1 °F 100% 29.65 in 0.8 mi NE 6.9 mph - N/A   Mist
5:10 AM 33.1 °F 26.1 °F 33.1 °F 100% 29.62 in 1.0 mi ENE 8.1 mph - N/A   Mist
5:53 AM 33.1 °F 24.9 °F 33.1 °F 100% 29.61 in 1.0 mi ENE 10.4 mph - N/A   Mist
6:06 AM 33.1 °F 25.5 °F 33.1 °F 100% 29.59 in 0.8 mi ENE 9.2 mph - N/A   Mist
6:53 AM 34.0 °F 27.2 °F 34.0 °F 100% 29.61 in 0.5 mi East 8.1 mph - N/A Fog Fog
7:53 AM 34.0 °F 28.8 °F 34.0 °F 100% 29.63 in 0.5 mi ENE 5.8 mph - N/A Fog Fog
8:24 AM 34.0 °F 28.8 °F 34.0 °F 100% 29.62 in 0.2 mi NE 5.8 mph - 0.00 in Fog Fog
8:53 AM 34.0 °F 26.6 °F 34.0 °F 100% 29.61 in 0.2 mi NE 9.2 mph - 0.00 in Fog Fog
9:53 AM 35.1 °F 28.6 °F 35.1 °F 100% 29.57 in 0.2 mi East 8.1 mph - N/A Fog Fog
10:53 AM 36.0 °F 28.5 °F 36.0 °F 100% 29.53 in 0.2 mi SE 10.4 mph - N/A Fog Fog
11:53 AM 37.0 °F 31.6 °F 37.0 °F 100% 29.50 in 0.2 mi SW 6.9 mph - 0.00 in Fog Fog
12:53 PM 36.0 °F 28.0 °F 36.0 °F 100% 29.50 in 0.2 mi West 11.5 mph - 0.00 in Fog , Rain Light Rain
1:01 PM 35.1 °F 26.9 °F 35.1 °F 100% 29.49 in 0.5 mi West 11.5 mph - 0.00 in Fog , Rain Light Rain
1:15 PM 35.1 °F 26.4 °F 35.1 °F 100% 29.49 in 2.0 mi WNW 12.7 mph - 0.00 in Rain Light Rain
1:25 PM 35.1 °F 27.4 °F 35.1 °F 100% 29.48 in 3.0 mi West 10.4 mph - 0.01 in Rain Light Rain
1:53 PM 34.0 °F 24.6 °F 34.0 °F 100% 29.49 in 6.0 mi West 13.8 mph - 0.01 in   Overcast
2:08 PM 34.0 °F 25.0 °F 33.1 °F 96% 29.47 in 10.0 mi West 12.7 mph - N/A   Overcast
2:49 PM 32.0 °F 20.8 °F 32.0 °F 100% 29.48 in 2.5 mi WNW 17.3 mph - 0.01 in Snow Light Snow
2:53 PM 32.0 °F 21.2 °F 32.0 °F 100% 29.50 in 4.0 mi WNW 16.1 mph - 0.02 in Snow Light Snow
3:53 PM 32.0 °F 21.2 °F 30.9 °F 96% 29.55 in 9.0 mi WNW 16.1 mph - 0.00 in   Overcast
4:23 PM 32.0 °F 21.2 °F 30.0 °F 92% 29.55 in 9.0 mi WNW 16.1 mph 26.5 mph N/A   Overcast
4:53 PM 30.9 °F 18.4 °F 30.0 °F 96% 29.59 in 7.0 mi WNW 20.7 mph 27.6 mph N/A   Overcast
5:53 PM 30.0 °F 16.9 °F 27.0 °F 88% 29.61 in 10.0 mi WNW 21.9 mph - N/A   Overcast
6:03 PM 30.0 °F 16.3 °F 26.1 °F 85% 29.59 in 10.0 mi WNW 24.2 mph 32.2 mph N/A   Overcast
6:21 PM 28.9 °F 15.8 °F 26.1 °F 89% 29.60 in 10.0 mi WNW 20.7 mph 27.6 mph N/A   Overcast
6:30 PM 28.9 °F 16.9 °F 27.0 °F 92% 29.60 in 10.0 mi West 17.3 mph 27.6 mph N/A   Overcast
6:38 PM 27.0 °F 13.2 °F 25.0 °F 92% 29.61 in 10.0 mi West 20.7 mph - N/A   Overcast
6:53 PM 27.0 °F 12.8 °F 25.0 °F 92% 29.65 in 10.0 mi West 21.9 mph - N/A   Overcast
7:46 PM 25.0 °F 9.9 °F 23.0 °F 92% 29.66 in 10.0 mi West 23.0 mph 33.4 mph N/A   Overcast
7:53 PM 25.0 °F 10.2 °F 23.0 °F 92% 29.68 in 10.0 mi West 21.9 mph 32.2 mph N/A   Overcast
8:53 PM 24.1 °F 9.0 °F 21.0 °F 88% 29.72 in 10.0 mi WNW 21.9 mph 27.6 mph N/A   Overcast
9:53 PM 19.9 °F 3.5 °F 15.1 °F 81% 29.76 in 10.0 mi WNW 21.9 mph 31.1 mph N/A   Mostly Cloudy
10:42 PM 21.0 °F 4.6 °F 18.0 °F 88% 29.77 in 10.0 mi West 23.0 mph 28.8 mph N/A   Overcast
10:53 PM 19.9 °F 4.8 °F 16.0 °F 85% 29.81 in 10.0 mi WNW 18.4 mph 28.8 mph N/A   Overcast
11:13 PM 19.0 °F 2.0 °F 15.1 °F 85% 29.81 in 7.0 mi WNW 23.0 mph 32.2 mph 0.00 in Snow Light Snow
11:53 PM 16.0 °F -2.1 °F 10.9 °F 81% 29.86 in 7.0 mi WNW 23.0 mph 29.9 mph 0.00 in Snow Light Snow